Time,TemperatureF,DewpointF,PressureIn,WindDirection,WindDirectionDegrees,WindSpeedMPH,WindSpeedGustMPH,Humidity,HourlyPrecipIn,Conditions,Clouds,dailyrainin,SoftwareType,DateUTC
2013-01-04 00:05:00,58.8,58.0,30.18,North,4,1.0,1.0,97,0.00,,,0.00,Wunderground v.1.15,2013-01-04 05:05:00,
2013-01-04 00:15:00,58.9,58.1,30.17,NNE,26,1.0,1.0,97,0.00,,,0.00,Wunderground v.1.15,2013-01-04 05:15:00,
2013-01-04 00:20:00,59.0,58.2,30.18,NW,314,1.0,2.0,97,0.00,,,0.00,Wunderground v.1.15,2013-01-04 05:20:00,
2013-01-04 00:25:00,59.1,58.2,30.17,NNE,26,2.0,2.0,97,0.00,,,0.00,Wunderground v.1.15,2013-01-04 05:25:00,
2013-01-04 00:30:00,59.1,58.2,30.17,NE,34,2.0,2.0,97,0.00,,,0.00,Wunderground v.1.15,2013-01-04 05:30:00,
2013-01-04 00:34:00,59.1,58.0,30.18,NW,307,3.0,6.0,97,0.00,,,0.00,weatherlink.com 1.10,2013-01-04 05:34:00,
2013-01-04 00:40:00,59.2,58.6,30.18,WNW,297,3.0,3.0,98,0.00,,,0.01,Wunderground v.1.15,2013-01-04 05:40:00,
2013-01-04 00:45:00,59.2,58.3,30.17,NNE,18,2.0,2.0,97,0.00,,,0.01,Wunderground v.1.15,2013-01-04 05:45:00,
2013-01-04 00:51:00,59.2,58.0,30.17,NW,306,2.0,7.0,97,0.02,,,0.02,weatherlink.com 1.10,2013-01-04 05:51:00,
2013-01-04 01:00:00,59.2,58.3,30.17,North,352,4.0,4.0,97,0.08,,,0.03,Wunderground v.1.15,2013-01-04 06:00:00,
2013-01-04 01:05:00,59.2,58.6,30.17,NNE,19,3.0,4.0,98,0.05,,,0.03,Wunderground v.1.15,2013-01-04 06:05:00,
2013-01-04 01:10:00,59.2,58.6,30.17,WNW,302,2.0,5.0,98,0.00,,,0.03,Wunderground v.1.15,2013-01-04 06:10:00,
2013-01-04 01:15:00,59.3,58.7,30.17,North,357,2.0,5.0,98,0.00,,,0.03,Wunderground v.1.15,2013-01-04 06:15:00,
2013-01-04 01:23:00,59.3,58.0,30.16,North,8,2.0,4.0,97,0.04,,,0.04,weatherlink.com 1.10,2013-01-04 06:23:00,
2013-01-04 01:30:00,59.2,58.3,30.16,WNW,288,2.0,3.0,97,0.00,,,0.04,Wunderground v.1.15,2013-01-04 06:30:00,
2013-01-04 01:35:00,59.2,58.3,30.17,WNW,284,3.0,4.0,97,0.00,,,0.04,Wunderground v.1.15,2013-01-04 06:35:00,
2013-01-04 01:40:00,59.2,58.3,30.17,NW,307,3.0,4.0,97,0.00,,,0.04,Wunderground v.1.15,2013-01-04 06:40:00,
2013-01-04 01:50:00,59.1,58.2,30.18,NW,307,4.0,4.0,97,0.00,,,0.04,Wunderground v.1.15,2013-01-04 06:50:00,
2013-01-04 01:55:00,59.0,58.2,30.17,North,6,4.0,5.0,97,0.00,,,0.04,Wunderground v.1.15,2013-01-04 06:55:00,
2013-01-04 02:00:00,58.9,58.1,30.17,NW,319,4.0,4.0,97,0.00,,,0.04,Wunderground v.1.15,2013-01-04 07:00:00,
2013-01-04 02:10:00,58.8,58.0,30.17,NNW,339,3.0,4.0,97,0.00,,,0.04,Wunderground v.1.15,2013-01-04 07:10:00,
2013-01-04 02:15:00,58.8,58.0,30.17,NNW,343,3.0,4.0,97,0.00,,,0.04,Wunderground v.1.15,2013-01-04 07:15:00,
2013-01-04 02:20:00,58.8,58.0,30.17,NE,42,3.0,3.0,97,0.00,,,0.04,Wunderground v.1.15,2013-01-04 07:20:00,
2013-01-04 02:25:00,58.9,58.1,30.18,NNW,336,3.0,3.0,97,0.00,,,0.04,Wunderground v.1.15,2013-01-04 07:25:00,
2013-01-04 02:30:00,58.8,58.0,30.18,WNW,302,2.0,3.0,97,0.00,,,0.04,Wunderground v.1.15,2013-01-04 07:30:00,
2013-01-04 02:40:00,58.6,57.8,30.18,NNE,23,4.0,4.0,97,0.00,,,0.04,Wunderground v.1.15,2013-01-04 07:40:00,
2013-01-04 02:45:00,58.3,57.2,30.18,NE,40,4.0,4.0,96,0.00,,,0.04,Wunderground v.1.15,2013-01-04 07:45:00,
2013-01-04 02:50:00,58.2,57.1,30.18,WNW,291,3.0,5.0,96,0.00,,,0.04,Wunderground v.1.15,2013-01-04 07:50:00,
2013-01-04 03:00:00,58.4,57.6,30.18,WNW,287,4.0,5.0,97,0.00,,,0.04,Wunderground v.1.15,2013-01-04 08:00:00,
2013-01-04 03:05:00,58.3,57.5,30.18,NW,305,4.0,5.0,97,0.00,,,0.04,Wunderground v.1.15,2013-01-04 08:05:00,
2013-01-04 03:10:00,58.2,57.4,30.18,NNW,338,5.0,5.0,97,0.00,,,0.04,Wunderground v.1.15,2013-01-04 08:10:00,
2013-01-04 03:18:00,58.0,57.0,30.19,West,277,4.0,10.0,97,0.00,,,0.04,weatherlink.com 1.10,2013-01-04 08:18:00,
2013-01-04 03:25:00,57.7,56.6,30.18,NW,304,6.0,6.0,96,0.00,,,0.04,Wunderground v.1.15,2013-01-04 08:25:00,
2013-01-04 03:34:00,57.5,56.0,30.19,NNE,29,2.0,9.0,96,0.00,,,0.04,weatherlink.com 1.10,2013-01-04 08:34:00,
2013-01-04 03:40:00,57.4,56.3,30.18,NW,304,5.0,5.0,96,0.00,,,0.04,Wunderground v.1.15,2013-01-04 08:40:00,
2013-01-04 03:50:00,57.2,56.1,30.18,NW,314,4.0,4.0,96,0.00,,,0.04,Wunderground v.1.15,2013-01-04 08:50:00,
2013-01-04 03:55:00,57.2,56.1,30.18,West,277,4.0,4.0,96,0.00,,,0.04,Wunderground v.1.15,2013-01-04 08:55:00,
2013-01-04 04:05:00,56.8,55.7,30.18,WNW,288,4.0,8.0,96,0.00,,,0.04,Wunderground v.1.15,2013-01-04 09:05:00,
2013-01-04 04:10:00,56.7,55.6,30.18,NNW,329,4.0,4.0,96,0.00,,,0.04,Wunderground v.1.15,2013-01-04 09:10:00,
2013-01-04 04:15:00,56.6,55.5,30.19,WNW,283,4.0,4.0,96,0.00,,,0.04,Wunderground v.1.15,2013-01-04 09:15:00,
2013-01-04 04:20:00,56.6,55.5,30.19,WNW,301,4.0,4.0,96,0.00,,,0.04,Wunderground v.1.15,2013-01-04 09:20:00,
2013-01-04 04:25:00,56.5,55.4,30.19,WNW,288,3.0,4.0,96,0.00,,,0.04,Wunderground v.1.15,2013-01-04 09:25:00,
2013-01-04 04:35:00,56.4,55.3,30.18,WNW,288,3.0,4.0,96,0.00,,,0.04,Wunderground v.1.15,2013-01-04 09:35:00,
2013-01-04 04:40:00,56.4,55.3,30.18,North,356,3.0,3.0,96,0.00,,,0.04,Wunderground v.1.15,2013-01-04 09:40:00,
2013-01-04 04:45:00,56.4,55.3,30.19,WNW,285,2.0,3.0,96,0.00,,,0.04,Wunderground v.1.15,2013-01-04 09:45:00,
2013-01-04 04:55:00,56.4,55.3,30.19,NW,309,3.0,5.0,96,0.00,,,0.04,Wunderground v.1.15,2013-01-04 09:55:00,
2013-01-04 05:05:00,56.6,55.8,30.19,NNW,330,3.0,4.0,97,0.00,,,0.04,Wunderground v.1.15,2013-01-04 10:05:00,
2013-01-04 05:10:00,56.6,55.8,30.19,NNE,15,3.0,3.0,97,0.00,,,0.04,Wunderground v.1.15,2013-01-04 10:10:00,
2013-01-04 05:15:00,56.8,56.0,30.20,NW,316,3.0,3.0,97,0.00,,,0.04,Wunderground v.1.15,2013-01-04 10:15:00,
2013-01-04 05:25:00,56.7,55.9,30.20,WNW,302,3.0,6.0,97,0.00,,,0.04,Wunderground v.1.15,2013-01-04 10:25:00,
2013-01-04 05:30:00,56.8,56.0,30.20,NW,307,3.0,3.0,97,0.00,,,0.04,Wunderground v.1.15,2013-01-04 10:30:00,
2013-01-04 05:35:00,56.8,56.0,30.20,ENE,75,3.0,3.0,97,0.00,,,0.04,Wunderground v.1.15,2013-01-04 10:35:00,
2013-01-04 05:40:00,56.7,55.9,30.20,NNW,348,3.0,3.0,97,0.00,,,0.04,Wunderground v.1.15,2013-01-04 10:40:00,
2013-01-04 05:46:00,56.6,56.0,30.20,NNE,23,1.0,6.0,97,0.00,,,0.04,weatherlink.com 1.10,2013-01-04 10:46:00,
2013-01-04 05:55:00,56.8,56.0,30.20,West,278,3.0,4.0,97,0.00,,,0.04,Wunderground v.1.15,2013-01-04 10:55:00,
2013-01-04 06:02:00,56.8,56.0,30.21,NW,325,4.0,6.0,97,0.00,,,0.04,weatherlink.com 1.10,2013-01-04 11:02:00,
2013-01-04 06:10:00,56.5,55.7,30.21,WNW,288,4.0,4.0,97,0.00,,,0.04,Wunderground v.1.15,2013-01-04 11:10:00,
2013-01-04 06:19:00,56.5,56.0,30.21,North,10,2.0,6.0,97,0.00,,,0.04,weatherlink.com 1.10,2013-01-04 11:19:00,
2013-01-04 06:25:00,56.5,55.7,30.21,WNW,287,3.0,3.0,97,0.00,,,0.04,Wunderground v.1.15,2013-01-04 11:25:00,
2013-01-04 06:30:00,56.5,55.7,30.21,North,356,3.0,3.0,97,0.00,,,0.04,Wunderground v.1.15,2013-01-04 11:30:00,
2013-01-04 06:35:00,56.5,55.7,30.21,West,264,3.0,5.0,97,0.00,,,0.04,Wunderground v.1.15,2013-01-04 11:35:00,
2013-01-04 06:45:00,56.4,55.6,30.21,WNW,295,4.0,4.0,97,0.00,,,0.04,Wunderground v.1.15,2013-01-04 11:45:00,
2013-01-04 06:50:00,56.3,55.5,30.22,WNW,295,5.0,5.0,97,0.00,,,0.04,Wunderground v.1.15,2013-01-04 11:50:00,
2013-01-04 06:55:00,56.4,55.6,30.22,NW,316,5.0,5.0,97,0.00,,,0.04,Wunderground v.1.15,2013-01-04 11:55:00,
2013-01-04 07:05:00,56.3,55.2,30.23,West,276,4.0,6.0,96,0.00,,,0.04,Wunderground v.1.15,2013-01-04 12:05:00,
2013-01-04 07:10:00,56.3,55.2,30.23,NW,322,4.0,5.0,96,0.00,,,0.04,Wunderground v.1.15,2013-01-04 12:10:00,
2013-01-04 07:15:00,56.2,55.1,30.23,WNW,290,5.0,5.0,96,0.00,,,0.04,Wunderground v.1.15,2013-01-04 12:15:00,
2013-01-04 07:20:00,56.1,55.0,30.23,NW,307,4.0,4.0,96,0.00,,,0.04,Wunderground v.1.15,2013-01-04 12:20:00,
2013-01-04 07:30:00,56.0,54.9,30.23,WNW,293,4.0,6.0,96,0.00,,,0.04,Wunderground v.1.15,2013-01-04 12:30:00,
2013-01-04 07:35:00,55.9,54.8,30.24,ENE,70,4.0,6.0,96,0.00,,,0.04,Wunderground v.1.15,2013-01-04 12:35:00,
2013-01-04 07:40:00,55.8,54.7,30.24,NNW,343,4.0,6.0,96,0.00,,,0.04,Wunderground v.1.15,2013-01-04 12:40:00,
2013-01-04 07:50:00,55.7,54.6,30.24,NW,319,3.0,3.0,96,0.00,,,0.04,Wunderground v.1.15,2013-01-04 12:50:00,
2013-01-04 07:55:00,55.8,54.7,30.24,NW,304,3.0,3.0,96,0.00,,,0.04,Wunderground v.1.15,2013-01-04 12:55:00,
2013-01-04 08:00:00,55.8,54.7,30.25,NW,307,3.0,4.0,96,0.00,,,0.04,Wunderground v.1.15,2013-01-04 13:00:00,
2013-01-04 08:10:00,55.8,54.7,30.25,WNW,298,4.0,4.0,96,0.00,,,0.04,Wunderground v.1.15,2013-01-04 13:10:00,
2013-01-04 08:15:00,55.9,55.1,30.25,WNW,287,3.0,5.0,97,0.00,,,0.04,Wunderground v.1.15,2013-01-04 13:15:00,
2013-01-04 08:20:00,55.9,54.8,30.25,WNW,289,3.0,3.0,96,0.00,,,0.04,Wunderground v.1.15,2013-01-04 13:20:00,
2013-01-04 08:29:00,55.5,54.0,30.26,NW,305,4.0,8.0,96,0.00,,,0.04,weatherlink.com 1.10,2013-01-04 13:29:00,
2013-01-04 08:35:00,55.6,54.2,30.26,WNW,294,4.0,8.0,95,0.00,,,0.04,Wunderground v.1.15,2013-01-04 13:35:00,
2013-01-04 08:40:00,55.6,54.2,30.26,NW,321,4.0,5.0,95,0.00,,,0.04,Wunderground v.1.15,2013-01-04 13:40:00,
2013-01-04 08:45:00,55.7,54.6,30.26,NW,309,3.0,5.0,96,0.00,,,0.04,Wunderground v.1.15,2013-01-04 13:45:00,
2013-01-04 08:55:00,55.7,54.3,30.26,West,266,3.0,3.0,95,0.00,,,0.04,Wunderground v.1.15,2013-01-04 13:55:00,
2013-01-04 09:00:00,55.8,54.7,30.27,NW,308,3.0,3.0,96,0.00,,,0.04,Wunderground v.1.15,2013-01-04 14:00:00,
2013-01-04 09:05:00,55.9,54.5,30.27,NW,326,3.0,4.0,95,0.00,,,0.04,Wunderground v.1.15,2013-01-04 14:05:00,
2013-01-04 09:10:00,56.0,54.9,30.27,West,278,4.0,5.0,96,0.00,,,0.04,Wunderground v.1.15,2013-01-04 14:10:00,
2013-01-04 09:15:00,56.1,55.0,30.27,NNW,336,4.0,5.0,96,0.00,,,0.04,Wunderground v.1.15,2013-01-04 14:15:00,
2013-01-04 09:25:00,56.3,55.2,30.27,WNW,297,3.0,4.0,96,0.00,,,0.04,Wunderground v.1.15,2013-01-04 14:25:00,
2013-01-04 09:30:00,56.3,54.9,30.27,NW,322,3.0,3.0,95,0.00,,,0.04,Wunderground v.1.15,2013-01-04 14:30:00,
2013-01-04 09:35:00,56.3,54.9,30.28,WNW,298,4.0,4.0,95,0.00,,,0.04,Wunderground v.1.15,2013-01-04 14:35:00,
2013-01-04 09:45:00,56.5,55.4,30.28,WSW,238,4.0,6.0,96,0.00,,,0.04,Wunderground v.1.15,2013-01-04 14:45:00,
2013-01-04 09:50:00,56.4,55.0,30.28,WNW,297,3.0,4.0,95,0.00,,,0.04,Wunderground v.1.15,2013-01-04 14:50:00,
2013-01-04 09:55:00,56.6,55.2,30.28,WNW,287,2.0,4.0,95,0.00,,,0.04,Wunderground v.1.15,2013-01-04 14:55:00,
2013-01-04 10:00:00,56.8,55.7,30.28,WNW,288,2.0,3.0,96,0.00,,,0.04,Wunderground v.1.15,2013-01-04 15:00:00,
2013-01-04 10:08:00,56.8,55.0,30.28,WNW,297,3.0,6.0,95,0.00,,,0.04,weatherlink.com 1.10,2013-01-04 15:08:00,
2013-01-04 10:15:00,56.9,55.8,30.28,NW,316,3.0,4.0,96,0.00,,,0.04,Wunderground v.1.15,2013-01-04 15:15:00,
2013-01-04 10:20:00,57.0,55.6,30.28,NNW,330,2.0,2.0,95,0.00,,,0.04,Wunderground v.1.15,2013-01-04 15:20:00,
2013-01-04 10:30:00,57.2,55.8,30.27,WNW,295,3.0,3.0,95,0.00,,,0.04,Wunderground v.1.15,2013-01-04 15:30:00,
2013-01-04 10:35:00,57.3,55.9,30.27,WNW,291,3.0,4.0,95,0.00,,,0.04,Wunderground v.1.15,2013-01-04 15:35:00,
2013-01-04 14:10:00,60.1,58.7,30.21,WNW,293,3.0,3.0,95,0.00,,,0.04,Wunderground v.1.15,2013-01-04 19:10:00,
2013-01-04 14:15:00,60.2,58.5,30.21,North,8,3.0,3.0,94,0.00,,,0.04,Wunderground v.1.15,2013-01-04 19:15:00,
2013-01-04 14:20:00,60.3,58.6,30.21,WNW,297,2.0,4.0,94,0.00,,,0.04,Wunderground v.1.15,2013-01-04 19:20:00,
2013-01-04 14:25:00,60.2,58.8,30.21,NW,318,3.0,4.0,95,0.00,,,0.04,Wunderground v.1.15,2013-01-04 19:25:00,
2013-01-04 14:35:00,59.9,58.5,30.21,WNW,285,3.0,4.0,95,0.00,,,0.04,Wunderground v.1.15,2013-01-04 19:35:00,
2013-01-04 14:40:00,59.7,58.3,30.21,WNW,283,3.0,3.0,95,0.00,,,0.04,Wunderground v.1.15,2013-01-04 19:40:00,
2013-01-04 14:50:00,59.6,58.2,30.21,NW,312,3.0,4.0,95,0.00,,,0.04,Wunderground v.1.15,2013-01-04 19:50:00,
2013-01-04 14:55:00,59.6,58.2,30.21,WNW,288,4.0,5.0,95,0.00,,,0.04,Wunderground v.1.15,2013-01-04 19:55:00,
2013-01-04 15:00:00,59.6,58.2,30.21,West,277,4.0,4.0,95,0.00,,,0.04,Wunderground v.1.15,2013-01-04 20:00:00,
2013-01-04 15:10:00,59.7,58.3,30.22,WNW,288,4.0,4.0,95,0.00,,,0.04,Wunderground v.1.15,2013-01-04 20:10:00,
2013-01-04 15:15:00,59.6,58.2,30.22,NW,305,4.0,4.0,95,0.00,,,0.04,Wunderground v.1.15,2013-01-04 20:15:00,
2013-01-04 15:25:00,59.5,58.1,30.22,WNW,301,3.0,5.0,95,0.00,,,0.04,Wunderground v.1.15,2013-01-04 20:25:00,
2013-01-04 15:30:00,59.5,58.1,30.22,NE,44,3.0,3.0,95,0.00,,,0.04,Wunderground v.1.15,2013-01-04 20:30:00,
2013-01-04 15:40:00,59.5,58.1,30.22,WNW,285,3.0,3.0,95,0.00,,,0.04,Wunderground v.1.15,2013-01-04 20:40:00,
2013-01-04 15:45:00,59.5,58.4,30.22,WNW,295,3.0,4.0,96,0.00,,,0.04,Wunderground v.1.15,2013-01-04 20:45:00,
2013-01-04 15:55:00,59.5,58.1,30.22,WNW,302,3.0,4.0,95,0.00,,,0.04,Wunderground v.1.15,2013-01-04 20:55:00,
2013-01-04 16:00:00,59.5,57.8,30.22,WNW,288,3.0,4.0,94,0.00,,,0.04,Wunderground v.1.15,2013-01-04 21:00:00,
2013-01-04 16:05:00,59.4,58.0,30.23,ENE,61,3.0,4.0,95,0.00,,,0.04,Wunderground v.1.15,2013-01-04 21:05:00,
2013-01-04 16:15:00,59.6,58.2,30.22,North,360,3.0,3.0,95,0.00,,,0.04,Wunderground v.1.15,2013-01-04 21:15:00,
2013-01-04 16:20:00,59.7,58.3,30.23,NNE,30,2.0,3.0,95,0.00,,,0.04,Wunderground v.1.15,2013-01-04 21:20:00,
2013-01-04 16:25:00,59.6,58.2,30.23,NW,308,3.0,3.0,95,0.00,,,0.04,Wunderground v.1.15,2013-01-04 21:25:00,
2013-01-04 16:35:00,59.5,58.0,30.23,NNW,338,2.0,6.0,95,0.00,,,0.04,weatherlink.com 1.10,2013-01-04 21:35:00,
2013-01-04 16:40:00,59.5,58.1,30.24,WNW,283,3.0,4.0,95,0.00,,,0.04,Wunderground v.1.15,2013-01-04 21:40:00,
2013-01-04 16:45:00,59.5,58.1,30.24,NNW,337,3.0,4.0,95,0.00,,,0.04,Wunderground v.1.15,2013-01-04 21:45:00,
2013-01-04 16:50:00,59.5,58.1,30.24,WNW,300,3.0,3.0,95,0.00,,,0.04,Wunderground v.1.15,2013-01-04 21:50:00,
2013-01-04 16:55:00,59.5,58.1,30.24,NNW,334,3.0,4.0,95,0.00,,,0.04,Wunderground v.1.15,2013-01-04 21:55:00,
2013-01-04 17:05:00,59.5,58.4,30.25,NW,323,3.0,3.0,96,0.00,,,0.04,Wunderground v.1.15,2013-01-04 22:05:00,
2013-01-04 17:15:00,59.2,58.1,30.25,West,281,4.0,4.0,96,0.00,,,0.04,Wunderground v.1.15,2013-01-04 22:15:00,
2013-01-04 17:20:00,59.1,58.0,30.25,NW,311,4.0,4.0,96,0.00,,,0.04,Wunderground v.1.15,2013-01-04 22:20:00,
2013-01-04 17:25:00,59.0,57.9,30.25,WNW,297,4.0,4.0,96,0.00,,,0.04,Wunderground v.1.15,2013-01-04 22:25:00,
2013-01-04 17:35:00,58.9,58.1,30.25,WNW,287,4.0,5.0,97,0.00,,,0.04,Wunderground v.1.15,2013-01-04 22:35:00,
2013-01-04 17:40:00,58.9,58.1,30.25,NW,326,3.0,3.0,97,0.00,,,0.04,Wunderground v.1.15,2013-01-04 22:40:00,
2013-01-04 17:45:00,58.8,58.0,30.25,NE,44,3.0,3.0,97,0.00,,,0.04,Wunderground v.1.15,2013-01-04 22:45:00,
2013-01-04 17:50:00,58.7,57.9,30.25,North,1,3.0,3.0,97,0.00,,,0.04,Wunderground v.1.15,2013-01-04 22:50:00,
2013-01-04 17:57:00,58.6,58.0,30.26,NW,321,2.0,6.0,97,0.00,,,0.04,weatherlink.com 1.10,2013-01-04 22:57:00,
2013-01-04 18:05:00,58.6,58.0,30.26,NW,305,3.0,3.0,98,0.00,,,0.04,Wunderground v.1.15,2013-01-04 23:05:00,
2013-01-04 18:10:00,58.5,57.9,30.26,North,352,3.0,3.0,98,0.00,,,0.04,Wunderground v.1.15,2013-01-04 23:10:00,
2013-01-04 18:15:00,58.5,57.9,30.26,North,349,3.0,3.0,98,0.00,,,0.04,Wunderground v.1.15,2013-01-04 23:15:00,
2013-01-04 18:20:00,58.5,57.9,30.26,NNE,15,2.0,2.0,98,0.00,,,0.04,Wunderground v.1.15,2013-01-04 23:20:00,
2013-01-04 18:29:00,58.4,58.0,30.27,NW,317,3.0,5.0,98,0.00,,,0.04,weatherlink.com 1.10,2013-01-04 23:29:00,
2013-01-04 18:35:00,58.5,57.9,30.27,NNW,333,3.0,3.0,98,0.00,,,0.04,Wunderground v.1.15,2013-01-04 23:35:00,
2013-01-04 18:40:00,58.5,57.9,30.27,West,281,3.0,4.0,98,0.00,,,0.04,Wunderground v.1.15,2013-01-04 23:40:00,
2013-01-04 18:45:00,58.5,57.9,30.27,NW,326,3.0,4.0,98,0.00,,,0.04,Wunderground v.1.15,2013-01-04 23:45:00,
2013-01-04 18:50:00,58.5,57.9,30.27,WNW,284,3.0,3.0,98,0.00,,,0.04,Wunderground v.1.15,2013-01-04 23:50:00,
2013-01-04 19:00:00,58.5,57.9,30.27,NW,314,2.0,2.0,98,0.00,,,0.04,Wunderground v.1.15,2013-01-05 00:00:00,
2013-01-04 19:05:00,58.5,57.9,30.27,North,349,2.0,2.0,98,0.00,,,0.04,Wunderground v.1.15,2013-01-05 00:05:00,
2013-01-04 19:15:00,58.5,57.9,30.28,North,6,2.0,5.0,98,0.00,,,0.04,Wunderground v.1.15,2013-01-05 00:15:00,
2013-01-04 19:20:00,58.6,58.0,30.28,NNW,338,3.0,3.0,98,0.00,,,0.04,Wunderground v.1.15,2013-01-05 00:20:00,
2013-01-04 19:25:00,58.6,58.0,30.28,North,356,2.0,3.0,98,0.00,,,0.04,Wunderground v.1.15,2013-01-05 00:25:00,
2013-01-04 19:35:00,58.6,58.0,30.28,North,359,2.0,2.0,98,0.00,,,0.04,Wunderground v.1.15,2013-01-05 00:35:00,
2013-01-04 19:40:00,58.6,58.0,30.28,WNW,297,2.0,2.0,98,0.00,,,0.04,Wunderground v.1.15,2013-01-05 00:40:00,
2013-01-04 19:45:00,58.7,58.1,30.28,NE,37,2.0,2.0,98,0.00,,,0.04,Wunderground v.1.15,2013-01-05 00:45:00,
2013-01-04 19:52:00,58.8,58.0,30.28,NW,306,2.0,5.0,98,0.00,,,0.04,weatherlink.com 1.10,2013-01-05 00:52:00,
2013-01-04 20:00:00,58.8,58.2,30.28,WNW,293,3.0,3.0,98,0.00,,,0.04,Wunderground v.1.15,2013-01-05 01:00:00,
2013-01-04 20:05:00,58.9,58.3,30.28,WNW,299,3.0,3.0,98,0.00,,,0.04,Wunderground v.1.15,2013-01-05 01:05:00,
2013-01-04 20:15:00,58.8,58.2,30.29,NW,325,3.0,4.0,98,0.00,,,0.04,Wunderground v.1.15,2013-01-05 01:15:00,
2013-01-04 20:25:00,58.8,58.2,30.29,WNW,288,4.0,4.0,98,0.00,,,0.04,Wunderground v.1.15,2013-01-05 01:25:00,
2013-01-04 20:30:00,58.8,58.2,30.29,NNW,346,3.0,3.0,98,0.00,,,0.04,Wunderground v.1.15,2013-01-05 01:30:00,
2013-01-04 20:35:00,58.9,58.3,30.29,NNE,20,2.0,3.0,98,0.00,,,0.04,Wunderground v.1.15,2013-01-05 01:35:00,
2013-01-04 20:42:00,58.9,58.0,30.29,NNW,328,2.0,4.0,98,0.00,,,0.04,weatherlink.com 1.10,2013-01-05 01:42:00,
2013-01-04 20:50:00,58.9,58.3,30.29,NE,42,2.0,2.0,98,0.00,,,0.04,Wunderground v.1.15,2013-01-05 01:50:00,
2013-01-04 20:58:00,58.8,58.0,30.29,NNE,13,0.0,3.0,98,0.00,,,0.04,weatherlink.com 1.10,2013-01-05 01:58:00,
2013-01-04 21:05:00,58.9,58.3,30.29,NNW,330,2.0,2.0,98,0.00,,,0.04,Wunderground v.1.15,2013-01-05 02:05:00,
2013-01-04 21:10:00,58.9,58.3,30.29,WNW,300,2.0,3.0,98,0.00,,,0.04,Wunderground v.1.15,2013-01-05 02:10:00,
2013-01-04 21:15:00,58.8,58.2,30.29,NNE,24,2.0,3.0,98,0.00,,,0.04,Wunderground v.1.15,2013-01-05 02:15:00,
2013-01-04 21:25:00,58.8,58.2,30.30,NW,318,2.0,3.0,98,0.00,,,0.04,Wunderground v.1.15,2013-01-05 02:25:00,
2013-01-04 21:30:00,58.9,58.3,30.30,NNW,333,2.0,2.0,98,0.00,,,0.04,Wunderground v.1.15,2013-01-05 02:30:00,
2013-01-04 21:35:00,58.8,58.0,30.30,North,11,2.0,2.0,97,0.00,,,0.04,Wunderground v.1.15,2013-01-05 02:35:00,
2013-01-04 21:45:00,58.9,58.1,30.30,NNW,329,2.0,2.0,97,0.00,,,0.04,Wunderground v.1.15,2013-01-05 02:45:00,
2013-01-04 21:50:00,58.9,58.1,30.29,NE,34,2.0,2.0,97,0.00,,,0.04,Wunderground v.1.15,2013-01-05 02:50:00,
2013-01-04 21:55:00,58.9,58.1,30.29,NNE,30,1.0,2.0,97,0.00,,,0.04,Wunderground v.1.15,2013-01-05 02:55:00,
2013-01-04 22:00:00,59.0,58.2,30.29,NW,307,1.0,3.0,97,0.00,,,0.04,Wunderground v.1.15,2013-01-05 03:00:00,
2013-01-04 22:10:00,59.0,58.2,30.29,NNE,20,1.0,1.0,97,0.00,,,0.04,Wunderground v.1.15,2013-01-05 03:10:00,
2013-01-04 22:15:00,59.0,58.2,30.29,NW,320,1.0,2.0,97,0.00,,,0.04,Wunderground v.1.15,2013-01-05 03:15:00,
2013-01-04 22:20:00,59.0,58.2,30.29,NNE,18,2.0,2.0,97,0.00,,,0.04,Wunderground v.1.15,2013-01-05 03:20:00,
2013-01-04 22:30:00,59.0,58.4,30.29,NNW,329,2.0,2.0,98,0.00,,,0.04,Wunderground v.1.15,2013-01-05 03:30:00,
2013-01-04 22:35:00,59.0,58.2,30.29,North,4,2.0,2.0,97,0.00,,,0.04,Wunderground v.1.15,2013-01-05 03:35:00,
2013-01-04 22:40:00,59.0,58.4,30.29,NNW,346,2.0,2.0,98,0.00,,,0.04,Wunderground v.1.15,2013-01-05 03:40:00,
2013-01-04 22:45:00,59.0,58.2,30.28,NNW,333,2.0,2.0,97,0.00,,,0.04,Wunderground v.1.15,2013-01-05 03:45:00,
2013-01-04 22:53:00,59.0,58.0,30.28,WNW,297,2.0,5.0,98,0.00,,,0.04,weatherlink.com 1.10,2013-01-05 03:53:00,
2013-01-04 23:00:00,59.1,58.5,30.29,NNW,330,3.0,3.0,98,0.00,,,0.04,Wunderground v.1.15,2013-01-05 04:00:00,
2013-01-04 23:05:00,59.1,58.5,30.29,NW,318,2.0,3.0,98,0.00,,,0.04,Wunderground v.1.15,2013-01-05 04:05:00,
2013-01-04 23:10:00,59.1,58.5,30.29,NNW,341,2.0,3.0,98,0.00,,,0.04,Wunderground v.1.15,2013-01-05 04:10:00,
2013-01-04 23:20:00,59.1,58.5,30.29,NNW,329,3.0,3.0,98,0.00,,,0.04,Wunderground v.1.15,2013-01-05 04:20:00,
2013-01-04 23:25:00,59.0,58.2,30.28,NNW,344,3.0,3.0,97,0.00,,,0.04,Wunderground v.1.15,2013-01-05 04:25:00,
2013-01-04 23:30:00,59.0,58.2,30.28,NE,34,2.0,2.0,97,0.00,,,0.04,Wunderground v.1.15,2013-01-05 04:30:00,
2013-01-04 23:40:00,59.0,58.2,30.28,NE,34,1.0,1.0,97,0.00,,,0.04,Wunderground v.1.15,2013-01-05 04:40:00,
2013-01-04 23:45:00,58.9,58.1,30.29,WNW,301,1.0,3.0,97,0.00,,,0.04,Wunderground v.1.15,2013-01-05 04:45:00,
2013-01-04 23:50:00,58.9,58.1,30.29,North,360,2.0,2.0,97,0.00,,,0.04,Wunderground v.1.15,2013-01-05 04:50:00,
2013-01-04 23:59:00,58.9,58.0,30.29,NNW,334,1.0,5.0,96,0.00,,,0.04,weatherlink.com 1.10,2013-01-05 04:59:00,